Regional Weather Roundup
Issued by NWS Binghamton, NY

Current Version | Previous Version | Text Only | Print | Product List | Glossary On
Versions: 1 2 3 4 5 6 7 8 9 10 11 12 13 14 15 16 17 18 19 20 21 22 23 24 25 26 27
000
ASUS41 KBGM 201010
RWRBGM
RWRBGM
BINGHAMTON REGIONAL WEATHER ROUNDUP
NATIONAL WEATHER SERVICE BINGHAMTON NY
600 AM EDT SUN APR 20 2014

Note: "fair" indicates few or no clouds below 12,000 feet with no
significant weather and/or obstructions to visibility.

* = Station(s) that does not report precipitation, such as rain,
snow, etc, also no thunder or fog.

!NYZ009-015>018-022>025-036-037-044>046-055>057-062-201100
...CENTRAL NEW YORK...

CITY           SKY/WX    TMP DP  RH WIND       PRES   REMARKS
BINGHAMTON     CLEAR     32  26  78 NE6       30.40R WCI  26
CORTLAND       FAIR      28  28 100 CALM      30.43F
DANSVILLE      CLEAR     32  26  78 SE6       30.42F WCI  26
ELMIRA         CLEAR     26  22  84 NW3       30.43R
ITHACA         CLEAR     29  27  92 E7        30.43F WCI  22
HAMILTON       SUNNY     28  27  93 CALM      30.44
MONTICELLO     PTCLDY    34  23  64 E3        30.43S
NORWICH        CLEAR     27  25  93 CALM      30.45S
ONEONTA        CLEAR     32  21  64 SE5       30.41F WCI  27
PENN YAN       CLEAR     30  27  88 SW3       30.42S
ROME           CLEAR     29  22  75 SE3       30.49R
SIDNEY         CLEAR     28  28 100 CALM      30.45R
SYRACUSE       PTCLDY    30  28  92 CALM      30.46R
$$

!PAZ038>040-043-044-047-048-072-201100
...NORTHEAST PENNSYLVANIA...

CITY           SKY/WX    TMP DP  RH WIND       PRES   REMARKS
SCRANTON       PTCLDY    39  24  55 NE6       30.41R WCI  35
$$
&&
KEY
WCI = WIND CHILL INDEX
VSB = VISIBILITY
HX  = HEAT INDEX
$$



USA.gov is the U.S. government's official web portal to all federal, state and local government web resources and services.